Home   Weather   Flagstaff   Past weeks

Flag for USA Past Weather in Flagstaff, Arizona, USA — Yesterday and Last 2 Weeks

Now
57 °F

Sunny.


Feels Like: 53 °F
Forecast: 38 / 58 °F
Wind: 16 mph from West

Location: Flagstaff Pulliam Airport

Current Time: Apr 25, 2017 at 1:33:41 pm

Latest Report: Apr 25, 2017 at 12:57 pm


Visibility: 10 mi

Pressure: 29.57 "Hg (23.02 "Hg at 2103m altitude)

Humidity: 16%

Dew Point: 11 °F

Location of FlagstaffLocation

Past Weather in Flagstaff — Graph

°F

Flagstaff Temperature Yesterday

Maximum temperature yesterday: 65 °F (at 12:57 pm)
Minimum temperature yesterday: 38 °F (at 4:57 am)
Average temperature yesterday: 54 °F

High & Low Weather Summary for the Past Weeks

 TemperatureHumidityPressure
High69 °F (Apr 21, 1:57 pm)81% (Apr 15, 5:57 am)30.10 "Hg (Apr 15, 5:57 am)
Low23 °F (Apr 11, 5:57 am)5% (Apr 21, 1:57 pm)29.49 "Hg (Apr 25, 1:57 am)
Average50 °F35%29.92 "Hg
* Reported Apr 10 11:57 am — Apr 25 11:57 am, Flagstaff, Weather by CustomWeather, © 2017

Note: Actual official high and low records may vary slightly from our data, if they occured in-between our weather recording intervals... More about our weather records

Advertising

Flagstaff Weather History for the Previous 24 Hours

Scroll right to see more
 ConditionsComfort  
Time TempWeatherWind HumidityBarometerVisibility
11:57 am
Tue, Apr 25
56 °FPassing clouds.15 mph20%29.56 "Hg10 mi
10:57 am55 °FSunny.15 mph24%29.58 "Hg10 mi
9:57 am54 °FPassing clouds.10 mph25%29.59 "Hg10 mi
8:57 am50 °FPartly sunny.8 mph43%29.59 "Hg10 mi
7:57 am49 °FSunny.13 mph48%29.57 "Hg10 mi
6:57 am46 °FPartly sunny.9 mph54%29.57 "Hg10 mi
5:57 am45 °FPartly sunny.10 mph53%29.55 "Hg10 mi
4:57 am46 °FPassing clouds.8 mph51%29.53 "Hg10 mi
3:57 am47 °FOvercast.9 mph50%29.52 "Hg10 mi
2:57 am48 °FPassing clouds.14 mph43%29.49 "Hg10 mi
1:57 am50 °FOvercast.9 mph38%29.49 "Hg10 mi
12:57 am50 °FClear.7 mph39%29.53 "Hg10 mi
11:57 pm
Mon, Apr 24
50 °FClear.7 mph39%29.54 "Hg10 mi
10:57 pm50 °FClear.10 mph41%29.57 "Hg9 mi
9:57 pm51 °FClear.13 mph39%29.60 "Hg10 mi
8:57 pm52 °FClear.20 mph40%29.59 "Hg10 mi
7:57 pm54 °FClear.20 mph35%29.60 "Hg10 mi
6:57 pm55 °FSunny.22 mph33%29.59 "Hg10 mi
5:57 pm58 °FSunny.25 mph27%29.61 "Hg10 mi
4:57 pm60 °FSunny.26 mph22%29.62 "Hg10 mi
3:57 pm62 °FSunny.28 mph20%29.61 "Hg10 mi
2:57 pm63 °FSunny.31 mph17%29.60 "Hg10 mi
1:57 pm64 °FSunny.24 mph17%29.63 "Hg10 mi
Weather by CustomWeather, © 2017

See weather overviewHow to use our weather pages